sat.trackr.live / text

‹ back to catalog

STARLINK-34581

NORAD 64745 · 2025-144X

PAYLOAD ACTIVE UNKNOWN

§ Identity

Operator
Country
US
Launch date
2025-07-02
Launch site
AFETR
Launch vehicle
Mass (kg)
RCS (m²)

Purposes: comms

External: N2YO · Heavens-Above · Gunter

§ Orbital elements

Epoch: 2026-09-20T17:37:03.710208Z

Period
93.85 min
Inclination
53.1597°
Eccentricity
0.0001140
Mean motion
15.34413561 rev/d
Perigee alt
461.9 km
Apogee alt
463.4 km
Semi-major
6,840.8 km
B*
6.1185e-4
RAAN
354.3966°
Arg perigee
75.7826°
Mean anomaly
284.3303°
Rev number
6,958

§ Raw data

STARLINK-345811 64745U 25144X   26263.73407072  .00020361  00000+0  61185-3 0  99962 64745  53.1597 354.3966 0001140  75.7826 284.3303 15.34413561 69589

JSON: /api/v1/satellites/64745 · /tle

For live sub-satellite position, see the globe view (requires WebGL).

§ Visibility from observer

Set your observer location to see the next 7 days of passes ≥ 10°. The values pass through the URL so the page stays shareable.

No JS? Fill the form by hand. The geolocation button needs JavaScript.